| time (UTC) | temp F | wind direction | speed MPH | gust MPH | rain 1hr in | rain 24hr in | rain mn in | humidity % | barometer mb |
| 20260505091832 | 62 | 211 | 5.0 | 9.0 | 0.00 | 0.00 | 0.00 | 44 | 1022.4 |
| 20260505084830 | 63 | 217 | 9.0 | 15.0 | 0.00 | 0.00 | 0.00 | 45 | 1022.1 |
| 20260505083330 | 64 | 207 | 9.0 | 13.0 | 0.00 | 0.00 | 0.00 | 44 | 1021.9 |
| 20260505081830 | 64 | 229 | 6.0 | 13.0 | 0.00 | 0.00 | 0.00 | 44 | 1021.7 |
| 20260505080331 | 64 | 199 | 6.0 | 12.0 | 0.00 | 0.00 | 0.00 | 43 | 1021.7 |
| 20260505074830 | 65 | 197 | 8.0 | 11.0 | 0.00 | 0.00 | 0.00 | 41 | 1021.7 |
| 20260505073330 | 65 | 265 | 8.0 | 13.0 | 0.00 | 0.00 | 0.00 | 40 | 1021.7 |
| 20260505071831 | 66 | 227 | 11.0 | 14.0 | 0.00 | 0.00 | 0.00 | 38 | 1021.7 |
| 20260505064830 | 67 | 195 | 4.0 | 10.0 | 0.00 | 0.00 | 0.00 | 38 | 1021.4 |
| 20260505063332 | 68 | 223 | 9.0 | 14.0 | 0.00 | 0.00 | 0.00 | 38 | 1021.1 |
| 20260505061830 | 68 | 198 | 8.0 | 10.0 | 0.00 | 0.00 | 0.00 | 35 | 1021.0 |
| 20260505054831 | 69 | 225 | 10.0 | 17.0 | 0.00 | 0.00 | 0.00 | 36 | 1020.8 |
| 20260505050332 | 72 | 203 | 7.0 | 12.0 | 0.00 | 0.00 | 0.00 | 24 | 1020.8 |
| 20260505033330 | 76 | 243 | 6.0 | 10.0 | 0.00 | 0.00 | 0.00 | 16 | 1020.3 |
| 20260505030332 | 77 | 240 | 2.0 | 3.0 | 0.00 | 0.00 | 0.00 | 14 | 1020.2 |
| 20260505024830 | 77 | 227 | 3.0 | 9.0 | 0.00 | 0.00 | 0.00 | 15 | 1020.3 |
| 20260505023331 | 74 | 215 | 3.0 | 7.0 | 0.00 | 0.00 | 0.00 | 17 | 1020.2 |
| 20260505021831 | 75 | 129 | 5.0 | 9.0 | 0.00 | 0.00 | 0.00 | 15 | 1020.3 |
| 20260505014831 | 73 | 101 | 5.0 | 9.0 | 0.00 | 0.00 | 0.00 | 15 | 1020.3 |
| 20260505013331 | 74 | 52 | 5.0 | 8.0 | 0.00 | 0.00 | 0.00 | 15 | 1020.1 |
| 20260505011831 | 76 | 56 | 3.0 | 5.0 | 0.00 | 0.00 | 0.00 | 14 | 1020.0 |
| 20260505010331 | 74 | 46 | 4.0 | 6.0 | 0.00 | 0.00 | 0.00 | 15 | 1020.0 |
| 20260505003331 | 73 | 39 | 3.0 | 5.0 | 0.00 | 0.00 | 0.00 | 16 | 1019.9 |
| 20260505000331 | 72 | 27 | 3.0 | 8.0 | 0.00 | 0.00 | 0.00 | 15 | 1019.6 |
| 20260504234832 | 71 | 15 | 5.0 | 7.0 | 0.00 | 0.00 | 0.00 | 16 | 1019.7 |
| 20260504233331 | 70 | 46 | 3.0 | 4.0 | 0.00 | 0.00 | 0.00 | 17 | 1019.7 |
| 20260504231831 | 69 | 45 | 3.0 | 7.0 | 0.00 | 0.00 | 0.00 | 18 | 1019.7 |
| 20260504230330 | 69 | 30 | 6.0 | 11.0 | 0.00 | 0.00 | 0.00 | 17 | 1019.8 |
| 20260504224831 | 69 | 37 | 3.0 | 5.0 | 0.00 | 0.00 | 0.00 | 19 | 1019.7 |
| 20260504223332 | 66 | 31 | 6.0 | 7.0 | 0.00 | 0.00 | 0.00 | 18 | 1019.4 |
| 20260504221830 | 65 | 9 | 5.0 | 9.0 | 0.00 | 0.00 | 0.00 | 21 | 1019.2 |
| 20260504220331 | 64 | 25 | 5.0 | 7.0 | 0.00 | 0.00 | 0.00 | 21 | 1019.1 |
| 20260504213330 | 61 | 33 | 6.0 | 9.0 | 0.00 | 0.00 | 0.00 | 24 | 1018.6 |
| 20260504211831 | 59 | 31 | 7.0 | 14.0 | 0.00 | 0.00 | 0.00 | 26 | 1018.4 |
| 20260504210332 | 59 | 13 | 5.0 | 13.0 | 0.00 | 0.00 | 0.00 | 27 | 1018.1 |
| 20260504203332 | 57 | 20 | 5.0 | 9.0 | 0.00 | 0.01 | 0.00 | 29 | 1017.3 |
| 20260504201830 | 57 | 30 | 2.0 | 6.0 | 0.00 | 0.02 | 0.00 | 30 | 1017.0 |
| 20260504200331 | 57 | 35 | 5.0 | 6.0 | 0.00 | 0.04 | 0.00 | 30 | 1016.5 |
| 20260504194832 | 57 | 11 | 5.0 | 9.0 | 0.00 | 0.09 | 0.00 | 30 | 1016.2 |
| 20260504193331 | 57 | 28 | 3.0 | 7.0 | 0.00 | 0.11 | 0.00 | 33 | 1015.7 |
| 20260504191832 | 57 | 29 | 3.0 | 6.0 | 0.00 | 0.14 | 0.00 | 35 | 1015.4 |
| 20260504190330 | 57 | 40 | 4.0 | 4.0 | 0.00 | 0.14 | 0.00 | 36 | 1015.0 |
| 20260504184831 | 57 | 13 | 3.0 | 7.0 | 0.00 | 0.15 | 0.00 | 37 | 1014.6 |
| 20260504183333 | 56 | 45 | 3.0 | 5.0 | 0.00 | 0.17 | 0.00 | 39 | 1014.3 |
| 20260504181831 | 56 | 31 | 5.0 | 7.0 | 0.00 | 0.17 | 0.00 | 40 | 1014.0 |
| 20260504180331 | 56 | 26 | 3.0 | 5.0 | 0.00 | 0.20 | 0.00 | 41 | 1013.7 |
| 20260504173331 | 56 | 26 | 1.0 | 2.0 | 0.00 | 0.29 | 0.00 | 41 | 1013.0 |
| 20260504171832 | 56 | 31 | 1.0 | 2.0 | 0.00 | 0.30 | 0.00 | 41 | 1012.7 |
| 20260504170331 | 56 | 40 | 1.0 | 3.0 | 0.00 | 0.32 | 0.00 | 42 | 1012.2 |
| 20260504160332 | 58 | 14 | 6.0 | 11.0 | 0.00 | 0.38 | 0.00 | 42 | 1010.7 |
| 20260504150331 | 60 | 18 | 3.0 | 8.0 | 0.00 | 0.44 | 0.00 | 45 | 1009.4 |
| 20260504140331 | 61 | 46 | 1.0 | 4.0 | 0.00 | 0.44 | 0.44 | 44 | 1008.3 |
| 20260504130332 | 64 | 37 | 2.0 | 3.0 | 0.00 | 0.44 | 0.44 | 41 | 1006.7 |